[[{"header":{"parameterUnit":"m.s-1","parameterCategory":1,"la1":30.2991,"la2":30.254,"lo1":-89.0895,"lo2":-89.0444,"dy":0.0017,"dx":0.0017,"nx":28,"ny":28,"refTime":"2023-08-13T09:00:00:Z","depth":0,"parameterNumber":2,"parameterNumberName":"U-component_of_WINDS"},"data":[0,0,0,0,0,0,0,0,0,0,0,0,0,0,0,0,0,0,0,0,0,0,0,0,0,0,0,0,0,0,0,0,0,0,0,0,0,0,0,0,0,0,0,0,0,0,0,0,0,0,0,0,0,0,0,0,0,0,0.4885,0.4887,0,0.5021,0.5023,0.5024,0.5088,0.5088,0.5088,0.5088,0.5227,0.5231,0.5234,0,0,0,0,0,0,0,0,0,0,0,0,0,0.468,0.4683,0.4885,0.4887,0.4889,0.5021,0.5023,0.5025,0.5088,0.5088,0.5088,0.5088,0.5226,0.523,0.5235,0,0,0,0,0,0,0,0,0,0,0,0,0,0.4788,0.4684,0.4885,0.4936,0.4942,0.5021,0.5023,0.5025,0.5088,0.5088,0.5088,0.5088,0.5224,0.523,0.5235,0.5272,0,0,0.5252,0.5255,0,0,0,0,0,0,0,0,0.4781,0.4795,0.4927,0.4933,0.494,0.5038,0.5001,0.5108,0.5088,0.5033,0.5088,0.5088,0.5164,0.5175,0.52,0.5279,0.5285,0.5253,0.5256,0.5259,0.526,0,0,0,0,0,0,0,0.4774,0.479,0.4939,0.4929,0.4937,0.4952,0.4967,0.5022,0.5097,0.5038,0.5043,0.5058,0.5167,0.5195,0.5204,0.5287,0.5253,0.5258,0.5261,0.5264,0.5402,0.5403,0,0,0,0,0,0,0.4758,0.4783,0.4935,0.4943,0.4859,0.4956,0.4973,0.5006,0.5097,0.5111,0.5058,0.506,0.5185,0.5197,0.5209,0.5259,0.5259,0.5264,0.5267,0.5402,0.5403,0.5403,0,0,0,0,0,0,0.4753,0.4771,0.4929,0.4864,0.4886,0.496,0.4997,0.5009,0.5037,0.5112,0.5126,0.5072,0.5186,0.5201,0.5256,0.5265,0.5267,0.5272,0.5402,0.5402,0.5403,0.5358,0,0,0,0,0,0,0.4747,0.4769,0.4784,0.4864,0.4889,0.4974,0.4997,0.5012,0.5046,0.5051,0.5129,0.5142,0.5187,0.5247,0.5262,0.5272,0.5276,0.5401,0.5402,0.5403,0.5359,0.5357,0.5355,0,0,0,0,0,0.474,0.4766,0.4785,0.4803,0.491,0.4975,0.4989,0.504,0.5047,0.5062,0.5111,0.514,0.5261,0.5252,0.5269,0.5282,0.5401,0.5402,0.5403,0.536,0.5357,0.5355,0,0,0,0,0,0,0.4685,0.4778,0.4799,0.4853,0.4905,0.4985,0.5007,0.5035,0.5087,0.5089,0.515,0.5167,0.5216,0.5255,0.5243,0.5322,0.5334,0.5338,0.5296,0.5294,0.5292,0.5282,0.5281,0,0,0,0,0,0.4679,0.4725,0.4803,0.4842,0.4868,0.4932,0.4963,0.4997,0.5054,0.5077,0.5129,0.5183,0.5234,0.5266,0.5316,0.5365,0.5383,0.5381,0.5379,0.5377,0.538,0.5408,0.5409,0.5405,0.5405,0.5405,0,0,0.4668,0.4724,0.4749,0.4833,0.4878,0.4923,0.4951,0.4998,0.5032,0.5084,0.5139,0.5179,0.5244,0.5295,0.5321,0.5328,0.5385,0.5378,0.5376,0.538,0.5409,0.5409,0.5409,0.5406,0.5405,0.5405,0,0,0.467,0.4717,0.4755,0.4799,0.4867,0.491,0.4918,0.4994,0.5023,0.5079,0.5119,0.516,0.5246,0.529,0.5324,0.5341,0.537,0.5356,0.5346,0.5372,0.5373,0.5373,0.538,0.5381,0.5358,0.5358,0.5358,0,0.4647,0.4717,0.4771,0.4815,0.4851,0.49,0.4939,0.4979,0.5059,0.5083,0.509,0.5198,0.5245,0.5307,0.5312,0.5337,0.5349,0.5348,0.5368,0.5369,0.5371,0.5378,0.538,0.5356,0.5357,0.5357,0.5357,0,0.4686,0.4734,0.4756,0.4833,0.4871,0.4912,0.4971,0.5003,0.5034,0.5076,0.5132,0.5189,0.5252,0.527,0.53,0.5337,0.5339,0.5356,0.537,0.5368,0.5375,0.5379,0.5353,0.5354,0.5355,0.5355,0,0,0.4659,0.4764,0.4771,0.4806,0.4884,0.4922,0.4965,0.5026,0.5053,0.5106,0.5144,0.5214,0.5231,0.5269,0.5304,0.5328,0.5338,0.5343,0.5345,0.534,0.5381,0.5368,0.5371,0.5357,0.5358,0.5358,0.5376,0,0.4672,0.4752,0.4801,0.4861,0.4906,0.4953,0.499,0.5041,0.5081,0.5125,0.5169,0.5218,0.5236,0.5259,0.5284,0.5331,0.5347,0.5331,0.5393,0.5394,0.5376,0.5375,0.5361,0.5375,0.5379,0.538,0.538,0,0.4699,0.4751,0.4816,0.4888,0.4909,0.4941,0.5002,0.5042,0.5101,0.5129,0.517,0.5206,0.5253,0.5261,0.5327,0.5314,0.5342,0.5369,0.5371,0.538,0.5388,0.5383,0.5381,0.5383,0.5385,0.5385,0.5385,0,0.4672,0.4759,0.4809,0.4838,0.4923,0.4945,0.4982,0.5041,0.5074,0.5126,0.5149,0.5205,0.5237,0.528,0.533,0.5331,0.539,0.5403,0.5414,0.5413,0.5425,0.5424,0.5428,0.5442,0.5442,0.5442,0.5442,0,0.4683,0.4721,0.4799,0.4829,0.4873,0.4928,0.4969,0.501,0.5061,0.51,0.5144,0.5179,0.5243,0.5286,0.5326,0.5374,0.5388,0.5411,0.5421,0.5407,0.5404,0.5427,0.5428,0.5443,0.5442,0.5442,0.5442,0,0.4662,0.4715,0.4773,0.4849,0.4869,0.4897,0.4962,0.4994,0.5035,0.5084,0.5099,0.5164,0.5217,0.5271,0.5343,0.5369,0.5416,0.543,0.5397,0.5402,0.5411,0.541,0.5431,0.5436,0.5445,0.5445,0.5445,0,0.4665,0.4695,0.4774,0.4804,0.4839,0.4886,0.492,0.4976,0.501,0.5078,0.5101,0.5158,0.5206,0.5288,0.5342,0.5397,0.5413,0.5416,0.5421,0.5406,0.5413,0.5411,0.5414,0.5414,0.5414,0.5414,0.5413,0,0.4665,0.469,0.4739,0.4796,0.4836,0.4884,0.4933,0.4955,0.5019,0.5055,0.511,0.5147,0.522,0.5276,0.5337,0.5374,0.5404,0.5411,0.5417,0.5404,0.5383,0.5395,0.5392,0.5411,0.5411,0.5411,0.5411,0.5411,0.4657,0.4686,0.4746,0.4798,0.4841,0.4886,0.4919,0.4965,0.5012,0.5076,0.5105,0.516,0.5217,0.5303,0.5339,0.5383,0.5391,0.5399,0.5402,0.5403,0.54,0.5375,0.5394,0.5394,0.5394,0.5394,0.5395,0,0.466,0.4701,0.4748,0.4816,0.4857,0.4882,0.4937,0.497,0.5018,0.5069,0.5115,0.5178,0.5231,0.5289,0.5346,0.5369,0.5385,0.5383,0.5382,0.539,0.5389,0.5378,0.5369,0.5369,0.5369,0.5369,0.5369,0.5369,0.4667,0.4717,0.4749,0.482,0.4861,0.4915,0.4945,0.4986,0.5027,0.5095,0.514,0.5177,0.5231,0.5292,0.5342,0.5358,0.5377,0.537,0.539,0.5388,0.539,0.5392,0.5382,0.5374,0.5374,0.5388,0.5388,0.5388]},{"header":{"parameterUnit":"m.s-1","parameterCategory":1,"la1":30.2991,"la2":30.254,"lo1":-89.0895,"lo2":-89.0444,"dy":0.0017,"dx":0.0017,"nx":28,"ny":28,"refTime":"2023-08-13T09:00:00:Z","depth":0,"parameterNumber":3,"parameterNumberName":"V-component_of_WINDS"},"data":[0,0,0,0,0,0,0,0,0,0,0,0,0,0,0,0,0,0,0,0,0,0,0,0,0,0,0,0,0,0,0,0,0,0,0,0,0,0,0,0,0,0,0,0,0,0,0,0,0,0,0,0,0,0,0,0,0,0,4.3517,4.3516,0,4.3437,4.3436,4.3435,4.3359,4.3358,4.3357,4.3356,4.3268,4.3266,4.3265,0,0,0,0,0,0,0,0,0,0,0,0,0,4.36,4.3599,4.3517,4.3516,4.3515,4.3437,4.3436,4.3435,4.3359,4.3358,4.3356,4.3355,4.3268,4.3267,4.3265,0,0,0,0,0,0,0,0,0,0,0,0,0,4.3546,4.3598,4.3517,4.3468,4.3463,4.3437,4.3436,4.3434,4.3359,4.3358,4.3356,4.3355,4.3269,4.3267,4.3265,4.3279,0,0,4.3258,4.3257,0,0,0,0,0,0,0,0,4.3549,4.3543,4.3476,4.3471,4.3465,4.3406,4.3433,4.3382,4.3359,4.3398,4.3356,4.3354,4.3315,4.3309,4.3296,4.3275,4.3272,4.3258,4.3256,4.3255,4.3255,0,0,0,0,0,0,0,4.3553,4.3546,4.3485,4.3475,4.3469,4.3448,4.3439,4.3423,4.3365,4.3395,4.3389,4.3381,4.3311,4.3299,4.3294,4.327,4.3258,4.3256,4.3254,4.3254,4.3257,4.3259,0,0,0,0,0,0,4.3565,4.355,4.3488,4.3483,4.3505,4.3448,4.3438,4.3427,4.3365,4.3355,4.3382,4.3378,4.3303,4.3296,4.329,4.3304,4.3255,4.3253,4.3252,4.3256,4.3258,4.3259,0,0,0,0,0,0,4.3567,4.356,4.3491,4.3515,4.3504,4.3448,4.3436,4.3426,4.3413,4.3356,4.3345,4.338,4.3302,4.3294,4.3283,4.33,4.3252,4.325,4.3254,4.3256,4.3258,4.3331,0,0,0,0,0,0,4.357,4.3561,4.3568,4.3515,4.3503,4.3487,4.3437,4.3425,4.341,4.3404,4.3351,4.3341,4.33,4.3287,4.3281,4.3296,4.3249,4.3252,4.3255,4.3258,4.3327,4.3336,4.3343,0,0,0,0,0,4.3573,4.359,4.3568,4.3561,4.351,4.3488,4.3481,4.3435,4.3412,4.3417,4.338,4.3342,4.3299,4.3287,4.3279,4.3294,4.3251,4.3254,4.3257,4.3324,4.3334,4.3343,0,0,0,0,0,0,4.3643,4.3582,4.3557,4.3558,4.3529,4.3475,4.348,4.3448,4.3423,4.3417,4.336,4.3349,4.3345,4.3318,4.3305,4.3305,4.327,4.3272,4.3323,4.3332,4.334,4.3346,4.3247,0,0,0,0,0,4.366,4.3648,4.3594,4.36,4.3587,4.3537,4.3525,4.3493,4.3459,4.3446,4.3408,4.3376,4.3355,4.3342,4.3319,4.3323,4.331,4.3329,4.3337,4.3344,4.3346,4.3346,4.3354,4.3269,4.3269,4.3269,0,0,4.3692,4.3657,4.3653,4.3614,4.3587,4.3576,4.3526,4.3516,4.3506,4.3443,4.3432,4.3404,4.3363,4.3361,4.3357,4.3338,4.3367,4.3348,4.3354,4.3352,4.335,4.3358,4.3366,4.3272,4.3271,4.3271,0,0,4.3744,4.3717,4.372,4.3695,4.3656,4.3622,4.3623,4.3574,4.3553,4.3542,4.3495,4.3481,4.3446,4.342,4.3402,4.3446,4.341,4.344,4.3481,4.3482,4.3488,4.3494,4.351,4.3516,4.3442,4.3442,4.3443,0,4.3789,4.3771,4.3724,4.3717,4.3701,4.3647,4.3648,4.3625,4.358,4.357,4.3549,4.3505,4.3474,4.3464,4.3476,4.3463,4.3461,4.3445,4.3492,4.3497,4.3501,4.3515,4.3521,4.3446,4.3446,4.3446,4.3445,0,4.3827,4.3816,4.3822,4.3783,4.3767,4.3764,4.3716,4.3706,4.3675,4.3643,4.3631,4.3593,4.3562,4.3557,4.3526,4.3543,4.3532,4.3503,4.3466,4.3514,4.3526,4.3531,4.3452,4.3451,4.3449,4.3448,0,0,4.3921,4.3858,4.3861,4.3842,4.3796,4.3785,4.378,4.3751,4.3744,4.3715,4.3708,4.368,4.3653,4.3633,4.3598,4.3599,4.3636,4.3569,4.3567,4.3583,4.3652,4.3675,4.3682,4.3613,4.3613,4.3614,4.3656,0,4.3966,4.3955,4.3913,4.3913,4.3902,4.385,4.3845,4.3815,4.3785,4.377,4.3736,4.3717,4.3683,4.367,4.3669,4.3632,4.3649,4.3629,4.3604,4.3604,4.3616,4.3688,4.3712,4.3753,4.366,4.3661,4.3661,0,4.4017,4.3994,4.3994,4.3949,4.3942,4.3939,4.391,4.3896,4.3861,4.3839,4.3818,4.378,4.3769,4.3736,4.372,4.3707,4.3695,4.3675,4.3676,4.3671,4.3635,4.3685,4.3764,4.3771,4.3668,4.3668,4.3667,0,4.4086,4.4054,4.405,4.4036,4.3983,4.3982,4.396,4.3924,4.391,4.3884,4.3874,4.3846,4.3831,4.381,4.3765,4.3745,4.3755,4.3718,4.3735,4.3736,4.3739,4.3739,4.3817,4.3732,4.3732,4.3731,4.3731,0,4.414,4.4142,4.4081,4.4078,4.4078,4.403,4.4031,4.4004,4.3972,4.3962,4.3915,4.3907,4.3848,4.3833,4.3797,4.379,4.3783,4.3764,4.3755,4.3768,4.3771,4.3759,4.3755,4.3733,4.3733,4.3732,4.3732,0,4.4216,4.4176,4.4168,4.412,4.4107,4.411,4.4067,4.4062,4.403,4.4019,4.4013,4.3962,4.3941,4.3895,4.3861,4.3837,4.3838,4.3821,4.3851,4.3845,4.3865,4.3864,4.3937,4.3944,4.3855,4.3856,4.3857,0,4.4254,4.4254,4.4207,4.4198,4.4178,4.4164,4.415,4.4102,4.4089,4.405,4.405,4.4026,4.4004,4.3973,4.3932,4.3905,4.3887,4.3915,4.3883,4.3897,4.3887,4.3888,4.3888,4.3922,4.3923,4.3924,4.3925,0,4.4324,4.4304,4.4287,4.4263,4.4248,4.4227,4.4202,4.4197,4.4143,4.413,4.411,4.4093,4.406,4.4036,4.4004,4.3979,4.3943,4.3936,4.3938,4.3952,4.3969,4.396,4.387,4.3934,4.3933,4.3932,4.3932,4.3932,4.4382,4.438,4.4347,4.4329,4.4306,4.4285,4.4278,4.4246,4.4229,4.4199,4.4172,4.4154,4.4118,4.4072,4.4049,4.4033,4.4015,4.4019,4.402,4.4022,4.4028,4.3973,4.4027,4.4027,4.4027,4.4026,4.4026,0,4.445,4.4427,4.4411,4.4379,4.4365,4.4335,4.4306,4.4296,4.4282,4.4253,4.4233,4.4209,4.4186,4.4144,4.4117,4.4113,4.4096,4.4107,4.4107,4.4102,4.4045,4.4046,4.4122,4.4122,4.4122,4.4122,4.4122,4.4122,4.4484,4.448,4.4456,4.444,4.4415,4.4399,4.4386,4.4365,4.4342,4.4318,4.43,4.4274,4.4239,4.4209,4.4187,4.4174,4.4167,4.4184,4.4166,4.4114,4.4105,4.4097,4.4097,4.4183,4.4183,4.4224,4.4224,4.4225]}]]